Regional Weather Roundup
Issued by NWS New Orleans/Baton Rouge, LA

Home | Current Version | Previous Version | Text Only | Print | Product List | Glossary On
Versions: 1 2 3 4 5 6 7 8 9 10 11 12 13 14 15 16 17 18 19 20 21 22 23 24 25 26 27 28 29 30 31 32 33 34 35 36 37 38 39 40 41 42 43 44 45 46 47 48 49 50
100
ASUS44 KLIX 291207
RWRLIX
NEW ORLEANS REGIONAL WEATHER ROUNDUP
NATIONAL WEATHER SERVICE NEW ORLEANS LA
700 AM CDT SUN MAR 29 2015

NOTE: "FAIR" INDICATES FEW OR NO CLOUDS BELOW 12,000 FEET WITH NO
      SIGNIFICANT WEATHER AND/OR OBSTRUCTIONS TO VISIBILITY.
      SKY/WX - SKY CONDITION AND SIGNIFICANT WEATHER.
      TMP - AIR TEMPERATURE.     DP    - DEWPOINT TEMPERATURE.
      RH  - RELATIVE HUMIDITY.   PRES  - PRESSURE.
      HI  - HEAT INDEX.          WCI   - WIND CHILL INDEX.

*  THESE STATIONS ARE NOT NWS OR FAA STATIONS AND ARE NOT UNDER
   NWS QUALITY CONTROL.

LAZ038-040-048-061>063-065>067-069-291300-
SOUTHEAST LOUISIANA

CITY           SKY/WX    TMP DP  RH WIND       PRES   REMARKS
N.O. AUDUBON     N/A     58  55  89 MISG        N/A
6HR MIN TEMP:  58; 6HR MAX TEMP:  59;

N.O. INTL ARPT PTCLDY    56  51  84 E7        30.26R
6HR MIN TEMP:  56; 6HR MAX TEMP:  59;

N.O. LAKEFRONT CLEAR     58  52  80 E13       30.27R
6HR MIN TEMP:  58; 6HR MAX TEMP:  62;

SLIDELL        CLEAR     46  39  76 NE3       30.28R
6HR MIN TEMP:  46; 6HR MAX TEMP:  51;

BATON ROUGE    CLEAR     48  45  89 E9        30.25R
6HR MIN TEMP:  48; 6HR MAX TEMP:  53;

BOOTHVILLE     CLEAR     57  54  89 E7        30.27R
6HR MIN TEMP:  56; 6HR MAX TEMP:  58;

BELLE CHASSE   PTCLDY    56  52  86 E6        30.26R
6HR MIN TEMP:  52; 6HR MAX TEMP:  58;

BOGALUSA*        N/A     46  35  65 E5        30.31R
6HR MIN TEMP:  45; 6HR MAX TEMP:  53;

GALLIANO*      SUNNY     62  59  90 CALM      30.25R
6HR MIN TEMP:  56; 6HR MAX TEMP:  63;

NEW ROADS*       N/A     51  49  92 E8        30.24R
6HR MIN TEMP:  51; 6HR MAX TEMP:  56;

GONZALES*        N/A     55  55 100 E3        30.25R
6HR MIN TEMP:  52; 6HR MAX TEMP:  56;

HAMMOND*       CLOUDY    48  37  66 CALM      30.29R
HOUMA*         PTCLDY    57  55  94 E6        30.24R
PORT FOURCHON* MOSUNNY   66  63  88 E7        30.27R

$$

MSZ070-080>082-291300-
SOUTHERN MISSISSIPPI

CITY           SKY/WX    TMP DP  RH WIND       PRES   REMARKS
MCCOMB         MOCLDY    44  33  65 SE6       30.27R
6HR MIN TEMP:  43; 6HR MAX TEMP:  50;

GULFPORT       CLEAR     46  35  65 E7        30.31R
6HR MIN TEMP:  46; 6HR MAX TEMP:  51;

BILOXI         CLEAR     46  36  69 E10       30.31R
6HR MIN TEMP:  46; 6HR MAX TEMP:  51;

PASCAGOULA     CLEAR     43  36  76 NE3       30.33R
6HR MIN TEMP:  43; 6HR MAX TEMP:  47;


$$

COASTAL OBSERVATIONS
LAKE AND NEARSHORE STATIONS

STATION/POSITION TIME  TEMP    WIND        PRES    WAVE
                       AIR SEA DIR/SP/G            HT/PER
                 (UTC) (F)     (DEG/KT/KT) (MB)    (FT/S)

OFFSHORE STATIONS

STATION/POSITION TIME  TEMP    WIND        PRES    WAVE
                       AIR SEA DIR/SP/G            HT/PER
                 (UTC) (F)     (DEG/KT/KT) (MB)    (FT/S)
64 S DAUPHIN ISL 1150   64 71  110/ 12/ 16 1025.7    1/ 3

$$




USA.gov is the U.S. government's official web portal to all federal, state and local government web resources and services.